TimeMDT,TemperatureF,Dew PointF,Humidity,Sea Level PressureIn,VisibilityMPH,Wind Direction,Wind SpeedMPH,Gust SpeedMPH,PrecipitationIn,Events,Conditions,WindDirDegrees,DateUTC
12:53 AM,46.0,44.1,93,29.73,10.0,South,5.8,-,N/A,,Mostly Cloudy,180,2013-05-29 06:53:00
1:53 AM,46.0,44.1,93,29.73,10.0,Calm,Calm,-,N/A,,Partly Cloudy,0,2013-05-29 07:53:00
2:53 AM,46.0,43.0,89,29.72,10.0,South,4.6,-,N/A,,Partly Cloudy,180,2013-05-29 08:53:00
3:53 AM,46.0,44.1,93,29.72,10.0,Calm,Calm,-,N/A,,Overcast,0,2013-05-29 09:53:00
4:53 AM,46.0,44.1,93,29.71,10.0,SE,3.5,-,N/A,,Clear,140,2013-05-29 10:53:00
5:53 AM,45.0,43.0,93,29.71,10.0,NE,3.5,-,N/A,,Partly Cloudy,50,2013-05-29 11:53:00
6:53 AM,46.9,45.0,93,29.71,10.0,SSE,3.5,-,N/A,,Clear,150,2013-05-29 12:53:00
7:53 AM,50.0,48.0,93,29.70,10.0,ENE,3.5,-,N/A,,Clear,70,2013-05-29 13:53:00
8:53 AM,53.1,48.9,86,29.70,10.0,East,4.6,-,N/A,,Clear,100,2013-05-29 14:53:00
9:53 AM,57.0,50.0,77,29.69,10.0,Calm,Calm,-,N/A,,Clear,0,2013-05-29 15:53:00
10:53 AM,57.9,50.0,75,29.70,10.0,Calm,Calm,-,N/A,,Scattered Clouds,0,2013-05-29 16:53:00
11:53 AM,61.0,48.9,64,29.70,10.0,East,3.5,-,N/A,,Clear,100,2013-05-29 17:53:00
12:53 PM,62.1,48.9,62,29.70,10.0,ENE,4.6,-,N/A,,Partly Cloudy,70,2013-05-29 18:53:00
1:53 PM,63.0,48.0,58,29.68,10.0,NNE,5.8,-,N/A,,Partly Cloudy,30,2013-05-29 19:53:00
2:53 PM,64.0,46.9,54,29.67,10.0,Calm,Calm,-,N/A,,Clear,0,2013-05-29 20:53:00
3:53 PM,66.0,48.9,54,29.66,10.0,NNW,3.5,-,N/A,,Scattered Clouds,340,2013-05-29 21:53:00
4:53 PM,57.9,53.1,84,29.69,6.0,NE,16.1,-,0.00,Rain,Light Rain,50,2013-05-29 22:53:00
4:58 PM,57.2,53.6,88,29.68,2.5,ENE,19.6,26.5,0.02,Rain,Heavy Rain,60,2013-05-29 22:58:00
5:12 PM,55.4,51.8,88,29.69,6.0,East,18.4,27.6,0.06,Rain,Light Rain,80,2013-05-29 23:12:00
5:53 PM,55.0,52.0,89,29.71,8.0,ENE,10.4,-,0.09,Rain,Light Rain,70,2013-05-29 23:53:00
6:53 PM,57.0,53.1,87,29.69,10.0,NE,3.5,-,0.02,,Overcast,50,2013-05-30 00:53:00
7:53 PM,55.9,53.1,90,29.69,10.0,ENE,8.1,-,0.00,,Overcast,70,2013-05-30 01:53:00
8:53 PM,55.0,52.0,89,29.69,10.0,NE,4.6,-,N/A,,Mostly Cloudy,50,2013-05-30 02:53:00
9:53 PM,54.0,52.0,93,29.70,10.0,East,6.9,-,0.00,,Overcast,90,2013-05-30 03:53:00
10:53 PM,54.0,52.0,93,29.69,10.0,Calm,Calm,-,N/A,,Overcast,0,2013-05-30 04:53:00
11:53 PM,54.0,52.0,93,29.69,8.0,Calm,Calm,-,0.00,Rain,Light Rain,0,2013-05-30 05:53:00